This is the latest recevied weather packets stored in our database for station/object LX0APE-4. If no packets are shown the sender has not sent any weather packets the latest 10 day(s).
| Time | Temp. | Humidity | Pressure | Rain* | Wind** | Luminosity | Snow |
|---|---|---|---|---|---|---|---|
| 1777209733 | 27.78° C | 19% | 5018.7 hPa | 0 mm | - | - | - |
| 1777209434 | 26.67° C | 21% | 5018.8 hPa | 0 mm | - | - | - |
| 1777209133 | 26.11° C | 22% | 5018.7 hPa | 0 mm | - | - | - |
| 1777208833 | 25.56° C | 21% | 5018.9 hPa | 0 mm | - | - | - |
| 1777208533 | 25.56° C | 23% | 5019 hPa | 0 mm | - | - | - |
| 1777208233 | 25° C | 23% | 5019 hPa | 0 mm | - | - | - |
| 1777207934 | 25° C | 23% | 5019 hPa | 0 mm | - | - | - |
| 1777207633 | 25° C | 24% | 5019 hPa | 0 mm | - | - | - |
| 1777207334 | 24.44° C | 25% | 5019.1 hPa | 0 mm | - | - | - |
| 1777207034 | 23.89° C | 25% | 5019 hPa | 0 mm | - | - | - |
| 1777206734 | 23.89° C | 25% | 5019.1 hPa | 0 mm | - | - | - |
| 1777206434 | 23.89° C | 27% | 5019.1 hPa | 0 mm | - | - | - |
| 1777206134 | 23.33° C | 27% | 5019.2 hPa | 0 mm | - | - | - |
| 1777205834 | 23.33° C | 28% | 5019.4 hPa | 0 mm | - | - | - |
| 1777205534 | 22.78° C | 29% | 5019.3 hPa | 0 mm | - | - | - |
| 1777205234 | 22.78° C | 29% | 5019.3 hPa | 0 mm | - | - | - |
| 1777204934 | 22.22° C | 29% | 5019.4 hPa | 0 mm | - | - | - |
| 1777204634 | 22.22° C | 29% | 5019.5 hPa | 0 mm | - | - | - |
| 1777204334 | 22.22° C | 29% | 5019.4 hPa | 0 mm | - | - | - |
| 1777204034 | 21.67° C | 31% | 5019.3 hPa | 0 mm | - | - | - |
| 1777203734 | 21.67° C | 30% | 5019.4 hPa | 0 mm | - | - | - |
| 1777203438 | 21.11° C | 31% | 5019.5 hPa | 0 mm | - | - | - |
| 1777203434 | 21.11° C | 31% | 5019.5 hPa | 0 mm | - | - | - |
| 1777203134 | 21.11° C | 31% | 5019.4 hPa | 0 mm | - | - | - |
| 1777202834 | 20.56° C | 33% | 5019.6 hPa | 0 mm | - | - | - |
* Rain latest hour (hover to see other rain measurements)
** Current wind speed in m/s (hover to see current wind gust speed)